Weather History for Le Mars, IA

Change the Weather History Date:

Sunday, May 19, 2013

  Actual Average Record
Temperature  
Mean Temperature 68 °F -  
Max Temperature 75 °F 75 °F 95 °F (1975)
Min Temperature 60 °F 50 °F 32 °F (2002)
Cooling Degree Days 2    
Growing Degree Days 18 (Base 50)    
Moisture  
Dew Point 60 °F    
Average Humidity 79    
Maximum Humidity 94    
Minimum Humidity 61    
Precipitation  
Precipitation 0.14 in - - ()
Sea Level Pressure  
Sea Level Pressure 29.63 in    
Wind  
Wind Speed 8 mph (South)    
Max Wind Speed 20 mph    
Max Gust Speed 29 mph    
Visibility 9 miles    
Events Rain    
Averages and records for this station are not official NWS values.
T = Trace of Precipitation, MM = Missing Value Source: NWS Daily Summary

Daily Weather History Graph

Daily Weather History Graph

Search for Another Location

Airport:

Trip Planner

Search our weather history database for the weather conditions in past years. The results will help you decide how hot, cold, wet, or windy it might be!

Date:

Astronomy

May. 19, 2013 Rise Set
Actual Time 5:58 AM CDT 8:45 PM CDT
Civil Twilight 5:25 AM CDT 9:18 PM CDT
Nautical Twilight 4:43 AM CDT 9:59 PM CDT
Astronomical Twilight 3:55 AM CDT 10:48 PM CDT
Moon 2:42 PM CDT (5/19) 2:30 AM CDT (5/19)
Length of Visible Light 15h 53m
Length of Day
14h 47m
Waxing Gibbous, 65% of the Moon is Illuminated
May 19
Waxing Gibbous
May 24
Full
May 31
Last Quarter
Jun 8
New
Jun 16
First Quarter

Hourly Weather History & Observations

Time (CDT) Temp. Dew Point Humidity Pressure Visibility Wind Dir Wind Speed Gust Speed Precip Events Conditions
12:15 AM 75.2 °F 60.8 °F 61% 29.71 in 10.0 mi SE 9.2 mph - N/A   Mostly Cloudy
12:35 AM 73.4 °F 60.8 °F 65% 29.70 in 10.0 mi SE 8.1 mph - N/A   Scattered Clouds
12:55 AM 73.4 °F 62.6 °F 69% 29.72 in 10.0 mi South 19.6 mph 28.8 mph N/A   Overcast
1:15 AM 71.6 °F 62.6 °F 73% 29.72 in 10.0 mi SSW 6.9 mph - N/A Rain Light Rain
1:35 AM 69.8 °F 59.0 °F 68% 29.70 in 10.0 mi SW 8.1 mph - N/A   Scattered Clouds
1:55 AM 69.8 °F 57.2 °F 64% 29.71 in 10.0 mi SSW 8.1 mph - N/A Rain Light Rain
2:15 AM 66.2 °F 60.8 °F 83% 29.74 in 10.0 mi South 12.7 mph - N/A Rain Light Rain
2:35 AM 66.2 °F 59.0 °F 78% 29.73 in 10.0 mi SSE 12.7 mph - 0.02 in Rain Rain
2:55 AM 64.4 °F 60.8 °F 88% 29.69 in 10.0 mi WSW 4.6 mph - 0.07 in Rain Rain
3:15 AM 64.4 °F 60.8 °F 88% 29.71 in 10.0 mi SSW 12.7 mph 18.4 mph 0.03 in Rain Rain
3:35 AM 64.4 °F 59.0 °F 83% 29.67 in 10.0 mi SSE 6.9 mph - 0.06 in Rain Light Rain
3:55 AM 64.4 °F 59.0 °F 83% 29.65 in 10.0 mi SE 4.6 mph - 0.06 in Rain Light Rain
4:15 AM 64.4 °F 59.0 °F 83% 29.62 in 10.0 mi Calm Calm - N/A   Light Drizzle
4:35 AM 62.6 °F 59.0 °F 88% 29.63 in 10.0 mi WSW 3.5 mph - N/A   Clear
4:55 AM 62.6 °F 59.0 °F 88% 29.62 in 10.0 mi SSE 5.8 mph - N/A   Clear
5:15 AM 62.6 °F 59.0 °F 88% 29.60 in 10.0 mi South 8.1 mph - N/A   Scattered Clouds
5:35 AM 62.6 °F 59.0 °F 88% 29.65 in 10.0 mi SW 10.4 mph - N/A   Clear
5:55 AM 62.6 °F 59.0 °F 88% 29.63 in 7.0 mi South 6.9 mph - N/A   Scattered Clouds
6:15 AM 62.6 °F 60.8 °F 94% 29.62 in 7.0 mi Calm Calm - N/A   Clear
6:35 AM 62.6 °F 60.8 °F 94% 29.61 in 5.0 mi East 5.8 mph - N/A   Clear
7:15 AM 62.6 °F 60.8 °F 94% 29.64 in 10.0 mi SSE 9.2 mph 18.4 mph N/A   Clear
7:35 AM 62.6 °F 60.8 °F 94% 29.67 in 10.0 mi SSE 12.7 mph 18.4 mph N/A   Clear
7:55 AM 64.4 °F 60.8 °F 88% 29.67 in 10.0 mi SSE 11.5 mph - N/A   Clear
8:15 AM 64.4 °F 60.8 °F 88% 29.67 in 10.0 mi SSE 11.5 mph - N/A   Clear
8:35 AM 66.2 °F 60.8 °F 83% 29.66 in 10.0 mi SSE 8.1 mph 18.4 mph N/A   Clear
8:55 AM 66.2 °F 60.8 °F 83% 29.65 in 10.0 mi South 8.1 mph - N/A   Clear
9:15 AM 66.2 °F 62.6 °F 88% 29.66 in 10.0 mi SSW 5.8 mph - N/A   Clear
9:55 AM 66.2 °F 60.8 °F 83% 29.69 in 10.0 mi SSW 11.5 mph - N/A Rain Light Rain
10:15 AM 66.2 °F 60.8 °F 83% 29.69 in 10.0 mi SW 8.1 mph - N/A   Scattered Clouds
10:35 AM 68.0 °F 60.8 °F 78% 29.69 in 10.0 mi SSW 11.5 mph - N/A   Scattered Clouds
10:55 AM 69.8 °F 60.8 °F 73% 29.69 in 10.0 mi SSW 11.5 mph - N/A   Scattered Clouds
11:15 AM 68.0 °F 60.8 °F 78% 29.68 in 10.0 mi South 9.2 mph - N/A   Mostly Cloudy
11:35 AM 68.0 °F 60.8 °F 78% 29.67 in 10.0 mi WSW 6.9 mph - N/A   Scattered Clouds
11:55 AM 68.0 °F 59.0 °F 73% 29.66 in 10.0 mi SW 4.6 mph - N/A   Scattered Clouds
12:15 PM 68.0 °F 59.0 °F 73% 29.66 in 10.0 mi SW 4.6 mph - N/A   Clear
12:35 PM 68.0 °F 59.0 °F 73% 29.66 in 10.0 mi Calm Calm - N/A Rain Light Rain
12:55 PM 69.8 °F 60.8 °F 73% 29.65 in 10.0 mi SSW 4.6 mph - N/A   Clear
1:15 PM 68.0 °F 60.8 °F 78% 29.64 in 10.0 mi SSW 3.5 mph - N/A   Clear
1:35 PM 68.0 °F 62.6 °F 83% 29.64 in 7.0 mi SSE 5.8 mph - N/A Rain Light Rain
2:15 PM 68.0 °F 62.6 °F 83% 29.64 in 5.0 mi South 8.1 mph - 0.01 in Rain Light Rain
2:35 PM 68.0 °F 62.6 °F 83% 29.65 in 4.0 mi South 6.9 mph 10.4 mph 0.01 in   Light Drizzle
3:15 PM 68.0 °F 60.8 °F 78% 29.66 in 7.0 mi SSW 11.5 mph - N/A Rain Light Rain
3:35 PM 66.2 °F 62.6 °F 88% 29.63 in 7.0 mi Calm Calm - N/A Rain Light Rain
3:55 PM 68.0 °F 62.6 °F 83% 29.67 in 7.0 mi SW 10.4 mph - N/A   Mostly Cloudy
4:15 PM 66.2 °F 62.6 °F 88% 29.66 in 5.0 mi SW 8.1 mph - N/A   Light Drizzle
4:35 PM 68.0 °F 62.6 °F 83% 29.61 in 5.0 mi Calm Calm - N/A   Haze
4:55 PM 69.8 °F 62.6 °F 78% 29.61 in 7.0 mi Calm Calm - N/A   Scattered Clouds
5:15 PM 71.6 °F 60.8 °F 69% 29.59 in 7.0 mi ESE 5.8 mph - N/A   Clear
5:35 PM 69.8 °F 60.8 °F 73% 29.58 in 10.0 mi East 6.9 mph - N/A   Clear
5:55 PM 69.8 °F 60.8 °F 73% 29.57 in 7.0 mi East 6.9 mph - N/A   Clear
6:15 PM 69.8 °F 60.8 °F 73% 29.56 in 7.0 mi East 6.9 mph - N/A   Clear
6:35 PM 68.0 °F 60.8 °F 78% 29.54 in 10.0 mi East 6.9 mph - N/A   Clear
6:55 PM 68.0 °F 60.8 °F 78% 29.55 in 10.0 mi ESE 9.2 mph - N/A   Clear
7:15 PM 69.8 °F 62.6 °F 78% 29.54 in 10.0 mi East 9.2 mph - N/A   Clear
7:35 PM 69.8 °F 60.8 °F 73% 29.53 in 10.0 mi East 10.4 mph - N/A   Clear
7:55 PM 69.8 °F 60.8 °F 73% 29.53 in 10.0 mi ESE 6.9 mph - N/A   Clear
8:15 PM 68.0 °F 60.8 °F 78% 29.52 in 10.0 mi East 6.9 mph - N/A   Clear
8:35 PM 66.2 °F 59.0 °F 78% 29.52 in 10.0 mi SE 5.8 mph - N/A   Clear
8:55 PM 66.2 °F 57.2 °F 73% 29.51 in 10.0 mi SSE 5.8 mph - N/A   Clear
9:15 PM 66.2 °F 57.2 °F 73% 29.51 in 10.0 mi SSE 10.4 mph - N/A   Clear
9:35 PM 66.2 °F 57.2 °F 73% 29.55 in 10.0 mi WSW 13.8 mph 27.6 mph N/A   Mostly Cloudy
9:55 PM 62.6 °F 53.6 °F 72% 29.54 in 10.0 mi WSW 4.6 mph - N/A   Mostly Cloudy
10:15 PM 62.6 °F 53.6 °F 72% 29.55 in 10.0 mi WSW 5.8 mph - N/A Rain Light Rain
10:35 PM 60.8 °F 53.6 °F 77% 29.55 in 10.0 mi SW 5.8 mph - N/A   Overcast
11:15 PM 60.8 °F 53.6 °F 77% 29.54 in 10.0 mi SSW 9.2 mph - N/A   Scattered Clouds
11:35 PM 60.8 °F 53.6 °F 77% 29.52 in 10.0 mi South 5.8 mph - N/A   Mostly Cloudy
11:55 PM 60.8 °F 53.6 °F 77% 29.51 in 10.0 mi South 5.8 mph - N/A   Scattered Clouds